Elkins, WV

1:23 PM EST on December 07, 2016 (GMT -0500)
Elkins-Randolph County

Weather History for KEKN - June, 2013

Change the Weather History Date:

Saturday, June 22, 2013

  Actual Average Record
Temperature  
Mean Temperature 71 °F 68 °F  
Max Temperature 84 °F 80 °F 93 °F (1949)
Min Temperature 58 °F 56 °F 38 °F (1992)
Degree Days  
Heating Degree Days 0 1  
Month to date heating degree days 12 48  
Since 1 June heating degree days 12 48  
Since 1 July heating degree days 5786 5845  
Cooling Degree Days 6 4  
Month to date cooling degree days 53 57  
Year to date cooling degree days 78 80  
Since 1 June cooling degree days 53 57  
Growing Degree Days 20 (Base 50)    
Moisture  
Dew Point 60 °F    
Average Humidity 74    
Maximum Humidity 100    
Minimum Humidity 47    
Precipitation  
Precipitation 0.00 in 0.15 in 1.35 in (1929)
Month to date precipitation 2.92 3.14  
Year to date precipitation 19.31 22.35  
Snow  
Snow 0.00 in - - ()
Month to date snowfall 0.0  
Since 1 September snowfall 77.5  
Snow Depth 0.00 in    
Sea Level Pressure  
Sea Level Pressure 30.23 in    
Wind  
Wind Speed 2 mph (WSW)    
Max Wind Speed 13 mph    
Max Gust Speed 17 mph    
Visibility 9 miles    
Events      
T = Trace of Precipitation, MM = Missing Value Source: NWS Daily Summary

Daily Weather History Graph

Daily Weather History Graph

Search for Another Location

Airport or City:

Trip Planner

Search our weather history database for the weather conditions in past years. The results will help you decide how hot, cold, wet, or windy it might be!

Date:

Astronomy

Jun. 22, 2013 Rise Set
Actual Time 5:54 AM EDT 8:48 PM EDT
Civil Twilight 5:22 AM EDT 9:20 PM EDT
Nautical Twilight 4:42 AM EDT 10:00 PM EDT
Astronomical Twilight 3:55 AM EDT 10:47 PM EDT
Moon 8:02 PM EDT (6/22) 5:04 AM EDT (6/22)
Length of Visible Light 15h 57m
Length of Day
14h 53m
Waxing Gibbous, 99% of the Moon is Illuminated
Jun 22
Waxing Gibbous
Jun 23
Full
Jun 30
Last Quarter
Jul 8
New
Jul 15
First Quarter

Hourly Weather History & Observations

Time (EDT) Temp. Heat Index Dew Point Humidity Pressure Visibility Wind Dir Wind Speed Gust Speed Precip Events Conditions
12:51 AM 63.0 °F - 60.1 °F 90% 30.24 in 10.0 mi Calm Calm - N/A   Clear
1:51 AM 62.1 °F - 60.1 °F 93% 30.25 in 10.0 mi Calm Calm - N/A   Partly Cloudy
2:51 AM 64.0 °F - 60.1 °F 87% 30.25 in 10.0 mi SW 3.5 mph - N/A   Partly Cloudy
3:51 AM 62.1 °F - 59.0 °F 90% 30.23 in 10.0 mi Calm Calm - N/A   Scattered Clouds
4:51 AM 60.1 °F - 57.9 °F 93% 30.23 in 10.0 mi Calm Calm - N/A   Clear
5:51 AM 57.9 °F - 57.0 °F 97% 30.25 in 8.0 mi Calm Calm - N/A   Clear
6:30 AM 59.0 °F - 57.2 °F 94% 30.26 in 2.5 mi Calm Calm - N/A   Partly Cloudy
6:37 AM 59.0 °F - 57.2 °F 94% 30.26 in 1.2 mi Calm Calm - N/A   Partly Cloudy
6:41 AM 59.0 °F - 57.2 °F 94% 30.26 in 3.0 mi Calm Calm - N/A   Partly Cloudy
6:51 AM 61.0 °F - 59.0 °F 93% 30.23 in 10.0 mi Calm Calm - N/A   Partly Cloudy
7:51 AM 66.0 °F - 60.1 °F 81% 30.24 in 10.0 mi Calm Calm - N/A   Clear
8:51 AM 70.0 °F - 61.0 °F 73% 30.25 in 10.0 mi SE 5.8 mph - N/A   Clear
9:51 AM 73.9 °F - 60.1 °F 62% 30.26 in 10.0 mi SE 4.6 mph - N/A   Clear
10:51 AM 75.9 °F - 57.9 °F 54% 30.28 in 10.0 mi Variable 3.5 mph - N/A   Mostly Cloudy
11:51 AM 78.1 °F - 60.1 °F 54% 30.28 in 10.0 mi WSW 6.9 mph - N/A   Mostly Cloudy
12:51 PM 80.1 °F 80.9 °F 60.1 °F 50% 30.27 in 10.0 mi West 6.9 mph - N/A   Clear
1:51 PM 81.0 °F 81.7 °F 61.0 °F 50% 30.26 in 10.0 mi NW 8.1 mph - N/A   Scattered Clouds
2:51 PM 82.0 °F 83.0 °F 62.1 °F 51% 30.24 in 10.0 mi Variable 5.8 mph - N/A   Partly Cloudy
3:51 PM 82.9 °F 83.7 °F 62.1 °F 49% 30.22 in 10.0 mi NW 6.9 mph - N/A   Clear
4:51 PM 82.9 °F 83.3 °F 61.0 °F 47% 30.19 in 10.0 mi Calm Calm - N/A   Scattered Clouds
5:51 PM 82.9 °F 83.2 °F 60.1 °F 46% 30.17 in 10.0 mi Calm Calm - N/A   Clear
6:51 PM 81.0 °F 81.7 °F 61.0 °F 50% 30.16 in 10.0 mi Calm Calm - N/A   Partly Cloudy
7:51 PM 77.0 °F - 64.0 °F 64% 30.15 in 10.0 mi Calm Calm - N/A   Scattered Clouds
8:51 PM 71.1 °F - 64.0 °F 78% 30.17 in 10.0 mi Calm Calm - N/A   Mostly Cloudy
9:51 PM 69.1 °F - 63.0 °F 81% 30.19 in 10.0 mi Calm Calm - N/A   Clear
10:51 PM 66.9 °F - 63.0 °F 87% 30.19 in 10.0 mi Calm Calm - N/A   Clear
11:51 PM 63.0 °F - 60.1 °F 90% 30.21 in 10.0 mi Calm Calm - N/A   Clear